Weather in Monki

Poland     53°24′20″N   22°47′52″E
temp.,
°C
wind,
m/s
gust,
m/s
humid.,
%
clouds,
%
prec.,
mm/h
press.,
hPa
HPBL,
m
27 september, mon
mon2723:00+9e3671100 0.0 102593
02:00+8e3580100 0.0 102591
05:00+7ese369019 0.0 1025105
08:00+8ese488133 0.0 1026252
11:00+13ese565613 0.0 1026764
14:00+15e56526 0.0 1025992
17:00+13e57645 0.0 1025511
20:00+9e49865 0.0 1025173
28 september, tue
tue2823:00+7ese39915 0.0 1026174
02:00+6ese38930 0.0 1027168
05:00+5ese37925 0.0 1027136
08:00+7ese38825 0.0 1027221
11:00+13se56575 0.0 10281111
14:00+15se565026 0.0 10271456
17:00+13ese586193 0.0 1028406
20:00+9ese4874100 0.0 1029133
29 september, wed
wed2923:00+8ese3781100 0.0 1030140
02:00+7ese3683100 0.0 1030104
05:00+6ese378498 0.0 1030119
08:00+9ese410815 0.0 1029296
11:00+14se69555 0.0 10291355
14:00+15se795059 0.0 10281673
17:00+13se610600 0.0 1027837
20:00+10se614702 0.0 1028503
30 september, thu
thu3023:00+9se615742 0.0 1027484
02:00+9se715745 0.0 1027479
05:00+8se6157649 0.0 1026441
08:00+8se61473100 0.0 1027506
11:00+12s6962100 0.0 1027733
14:00+10ssw3878100 0.3 1027461
17:00+9s3791100 0.6 1027282
20:00+9s2496100 1.2 1028127
1 october, fri
fri123:00+8ssw2297100 0.0 102939
02:00+8ssw1197100 0.0 102912
05:00+7sw22928 0.0 102913
08:00+8ssw12775 0.0 102960
11:00+14ssw23535 0.0 1029507
14:00+16s34505 0.0 10271109
17:00+15sse577770 0.0 1026478
20:00+9se48875 0.0 1027166